Location: Unspecified
(0.0000°N, 0.0000°E)
Time: 08:42:03
(UTC+00:00)

AO-27 - Visible Passes

Search period start: 18 September 2021 00:00
Search period end: 28 September 2021 00:00
Orbit: 784 x 798 km, 98.9° (Epoch: 17 September)

Date Brightness Start Highest point End Pass type
(mag) Time Alt. Az. Time Alt. Az. Time Alt. Az.
18 Sep 7.6 18:38:15 10° SSE 18:43:26 65° ENE 18:48:35 10° N visible
19 Sep 8.5 18:09:55 10° SE 18:14:22 29° ENE 18:18:47 10° NNE visible
19 Sep 10.3 19:50:08 10° SW 19:53:32 18° WSW 19:56:57 10° WNW visible
20 Sep 9.0 19:19:38 10° S 19:24:30 39° WSW 19:29:19 10° NW visible
21 Sep 7.6 18:50:10 10° SSE 18:55:25 90° ENE 19:00:37 10° NNW visible
22 Sep 8.1 18:21:29 10° SE 18:26:20 39° ENE 18:31:08 10° N visible
22 Sep 10.7 20:03:20 10° SW 20:05:29 13° WSW 20:07:38 10° W visible
23 Sep 9.6 19:31:59 10° SSW 19:36:27 29° WSW 19:40:53 10° NW visible
24 Sep 8.0 19:02:12 10° S 19:07:22 66° WSW 19:12:31 10° NNW visible
25 Sep 7.7 18:33:11 10° SSE 18:38:17 54° ENE 18:43:21 10° N visible
26 Sep 10.1 19:44:33 10° SSW 19:48:24 21° WSW 19:52:14 10° NW visible
27 Sep 8.7 19:14:20 10° S 19:19:20 47° WSW 19:24:18 10° NNW visible
